TimeAKDT,TemperatureF,Dew PointF,Humidity,Sea Level PressureIn,VisibilityMPH,Wind Direction,Wind SpeedMPH,Gust SpeedMPH,PrecipitationIn,Events,Conditions,WindDirDegrees,DateUTC
12:53 AM,51.1,45.0,80,29.95,10.0,Calm,Calm,-,N/A,,Mostly Cloudy,0,2012-08-09 08:53:00
1:53 AM,46.9,43.0,86,29.95,10.0,NNE,3.5,-,N/A,,Scattered Clouds,30,2012-08-09 09:53:00
2:53 AM,46.0,43.0,89,29.95,10.0,Calm,Calm,-,N/A,,Scattered Clouds,0,2012-08-09 10:53:00
3:53 AM,45.0,42.1,90,29.95,10.0,Calm,Calm,-,N/A,,Mostly Cloudy,0,2012-08-09 11:53:00
4:53 AM,44.1,41.0,89,29.95,10.0,NNE,4.6,-,N/A,,Mostly Cloudy,20,2012-08-09 12:53:00
5:53 AM,44.1,41.0,89,29.96,10.0,Calm,Calm,-,N/A,,Mostly Cloudy,0,2012-08-09 13:53:00
6:53 AM,45.0,42.1,90,29.97,10.0,Calm,Calm,-,N/A,,Mostly Cloudy,0,2012-08-09 14:53:00
7:53 AM,45.0,42.1,90,29.98,10.0,Calm,Calm,-,N/A,,Scattered Clouds,0,2012-08-09 15:53:00
8:53 AM,48.9,46.0,90,29.97,10.0,Calm,Calm,-,N/A,,Scattered Clouds,0,2012-08-09 16:53:00
9:53 AM,54.0,46.0,75,29.97,10.0,Calm,Calm,-,N/A,,Scattered Clouds,0,2012-08-09 17:53:00
10:53 AM,59.0,46.0,62,29.97,10.0,South,6.9,-,N/A,,Scattered Clouds,190,2012-08-09 18:53:00
11:53 AM,62.1,43.0,50,29.97,10.0,South,4.6,-,N/A,,Scattered Clouds,190,2012-08-09 19:53:00
12:53 PM,64.0,43.0,46,29.96,10.0,SSW,5.8,-,N/A,,Scattered Clouds,200,2012-08-09 20:53:00
1:53 PM,64.0,41.0,43,29.96,10.0,Calm,Calm,-,N/A,,Mostly Cloudy,0,2012-08-09 21:53:00
2:53 PM,64.9,42.1,43,29.96,10.0,WNW,4.6,-,N/A,,Mostly Cloudy,300,2012-08-09 22:53:00
3:53 PM,68.0,42.1,39,29.95,10.0,Variable,5.8,-,N/A,,Mostly Cloudy,0,2012-08-09 23:53:00
4:53 PM,68.0,42.1,39,29.95,10.0,Variable,4.6,-,N/A,,Mostly Cloudy,0,2012-08-10 00:53:00
5:53 PM,68.0,42.1,39,29.95,10.0,West,8.1,-,N/A,,Scattered Clouds,260,2012-08-10 01:53:00
6:53 PM,68.0,42.1,39,29.95,10.0,WSW,8.1,-,N/A,,Scattered Clouds,250,2012-08-10 02:53:00
7:53 PM,66.0,42.1,42,29.95,10.0,West,6.9,-,N/A,,Scattered Clouds,260,2012-08-10 03:53:00
8:53 PM,64.0,45.0,50,29.96,10.0,West,4.6,-,N/A,,Scattered Clouds,270,2012-08-10 04:53:00
9:53 PM,61.0,44.1,54,29.97,10.0,West,3.5,-,N/A,,Mostly Cloudy,260,2012-08-10 05:53:00
10:53 PM,54.0,46.9,77,29.98,10.0,Calm,Calm,-,N/A,,Scattered Clouds,0,2012-08-10 06:53:00
11:53 PM,50.0,45.0,83,29.99,10.0,Calm,Calm,-,N/A,,Scattered Clouds,0,2012-08-10 07:53:00